Hourly Data Report for January 23, 2022

ST. JOHN'S INTL A
NEWFOUNDLAND
Current Station Operator: NAVCAN

47°37'07.000" N
52°45'09.000" W
140.50 m
8403505
71801
YYT

Download Data

Hourly Data (January 2022)
Hourly Data Report for January 23, 2022
TIME
LST
Temp Definition
°C
Dew Point Definition
°C
Rel Hum Definition
%
Precip. Amount Definition
mm

Wind Dir Definition
10's deg

Wind Spd Definition
km/h
Visibility Definition
km
Stn Press Definition
kPa
Hmdx Definition


Wind Chill Definition


Weather Definition


00:30 -5.7 -8.1 83   12 24 24.1 100.31   -13 LegendNANA
01:30 -5.2 -7.5 84   11 25 24.1 100.09   -13 LegendNANA
02:30 -4.8 -7.0 85   11 26 24.1 99.88   -12 Cloudy
03:30 -4.3 -6.4 86   11 30 24.1 99.65   -12 LegendNANA
04:30 -4.0 -6.0 86   12 26 24.1 99.54   -11 LegendNANA
05:30 -4.0 -4.9 94   10 32 0.8 99.39   -12 Moderate Snow,Blowing Snow
06:30 -3.9 -4.6 95   9 26 0.8 99.18   -11 Moderate Snow,Blowing Snow
07:30 -3.8 -4.6 95   9 30 0.8 99.05   -11 Moderate Snow,Blowing Snow
08:30 -3.6 -4.2 95   7 33 0.4 98.83   -12 Heavy Snow
09:30 -3.4 -3.9 96   7 37 0.8 98.58   -12 Moderate Snow,Blowing Snow
10:30 -3.0 -3.6 96   5 32 0.8 98.38   -11 Moderate Snow,Blowing Snow
11:30 -2.7 -3.4 95   2 31 0.8 98.35   -10 Moderate Snow,Blowing Snow
12:30 -2.8 -3.8 93   36 30 4.0 98.27   -10 Snow,Blowing Snow
13:30 -2.5 -4.1 89   35 34 19.3 98.36   -10 Blowing Snow
14:30 -2.5 -4.2 88   34 40 24.1 98.45   -11 Blowing Snow
15:30 -2.6 -4.3 88   34 36 24.1 98.57   -10 Blowing Snow
16:30 -2.9 -4.8 86   33 34 24.1 98.70   -11 Blowing Snow
17:30 -3.2 -5.3 85   32 33 24.1 98.86   -11 Blowing Snow
18:30 -3.6 -5.7 85   31 29 24.1 99.01   -11 LegendNANA
19:30 -3.9 -6.3 83   29 28 24.1 99.11   -11 LegendNANA
20:30 -4.0 -6.5 83   30 27 24.1 99.27   -11 Cloudy
21:30 -4.1 -6.8 81   30 28 24.1 99.37   -12 LegendNANA
22:30 -4.1 -6.7 82   30 23 24.1 99.46   -11 LegendNANA
23:30 -4.0 -7.0 80   28 16 24.1 99.55   -10 Mostly Cloudy

Notes on Data Quality.

Legend

  • E = Estimated
  • M = Missing
  • NA = Not Available*
  • [empty] = Indicates an unobserved value
Date modified: